GW6771 Weather Reports


Display with metric or nautical units.
time (UTC)temp
F
wind
direction
speed
MPH
gust
MPH
rain 1hr
in
rain 24hr
in
rain mn
in
humidity
%
barometer
mb
20260510032016 57 45 8.0 13.0 0.00 0.00 0.00 71 1010.0
20260510031056 57 68 9.0 14.0 0.00 0.00 0.00 70 1010.0
20260510030016 58 45 10.0 14.0 0.00 0.00 0.00 70 1010.2
20260510025016 58 68 8.0 11.0 0.00 0.00 0.00 69 1010.3
20260510024036 58 68 8.0 13.0 0.00 0.00 0.00 70 1010.2
20260510023016 58 68 9.0 15.0 0.00 0.00 0.00 70 1010.3
20260510022016 58 45 9.0 13.0 0.00 0.00 0.00 70 1010.3
20260510021016 58 68 9.0 14.0 0.00 0.00 0.00 70 1010.3
20260510020016 58 45 9.0 13.0 0.00 0.00 0.00 70 1010.4
20260510015016 58 45 7.0 15.0 0.00 0.00 0.00 70 1010.5
20260510014016 58 45 8.0 13.0 0.00 0.00 0.00 71 1010.6
20260510013016 58 68 9.0 13.0 0.00 0.00 0.00 71 1010.7
20260510012016 58 68 8.0 12.0 0.00 0.00 0.00 71 1010.8
20260510011016 59 45 8.0 14.0 0.00 0.00 0.00 70 1010.9
20260510010036 59 68 9.0 13.0 0.00 0.00 0.00 70 1011.0
20260510005016 59 68 10.0 14.0 0.00 0.00 0.00 70 1011.1
20260510004056 59 68 9.0 15.0 0.00 0.00 0.00 70 1011.3
20260510003016 59 68 9.0 14.0 0.00 0.00 0.00 70 1011.4
20260510002016 59 68 9.0 13.0 0.00 0.00 0.00 70 1011.5
20260510001016 60 68 9.0 12.0 0.00 0.00 0.00 70 1011.7
20260510000016 60 68 8.0 13.0 0.00 0.00 0.00 70 1011.8
20260509235016 60 68 8.0 12.0 0.00 0.00 0.00 70 1012.0
20260509234036 60 68 9.0 13.0 0.00 0.00 0.00 69 1012.0
20260509233016 60 45 8.0 13.0 0.00 0.00 0.00 69 1012.0
20260509232016 60 68 9.0 14.0 0.00 0.00 0.00 70 1012.0
20260509231036 60 68 9.0 14.0 0.00 0.00 0.00 70 1012.1
20260509230016 60 68 9.0 12.0 0.00 0.00 0.00 70 1012.1
20260509225016 60 68 8.0 13.0 0.00 0.00 0.00 71 1012.1
20260509224016 60 68 8.0 12.0 0.00 0.00 0.00 72 1012.2
20260509223016 60 68 7.0 10.0 0.00 0.00 0.00 71 1012.1
20260509222016 61 68 7.0 12.0 0.00 0.00 0.00 71 1012.2
20260509221016 61 68 8.0 10.0 0.00 0.00 0.00 71 1012.1
20260509220056 61 68 8.0 12.0 0.00 0.00 0.00 71 1012.2
20260509215016 61 68 7.0 11.0 0.00 0.00 0.00 72 1012.2
20260509214016 61 68 9.0 11.0 0.00 0.00 0.00 71 1012.2
20260509213036 62 68 8.0 13.0 0.00 0.00 0.00 71 1012.3
20260509212017 61 68 7.0 10.0 0.00 0.00 0.00 72 1012.4
20260509211016 61 45 6.0 9.0 0.00 0.00 0.00 74 1012.3
20260509210016 60 45 4.0 6.0 0.00 0.00 0.00 74 1012.3
20260509205016 61 68 5.0 9.0 0.00 0.00 0.00 74 1012.2
20260509204016 61 90 6.0 9.0 0.00 0.00 0.00 73 1012.0
20260509203016 61 90 6.0 8.0 0.00 0.00 0.00 73 1012.1
20260509202016 62 68 6.0 8.0 0.00 0.00 0.00 73 1012.0
20260509201016 62 90 5.0 8.0 0.00 0.00 0.00 72 1012.0
20260509200016 62 90 4.0 6.0 0.00 0.00 0.00 71 1012.0
20260509195016 63 90 5.0 6.0 0.00 0.00 0.00 70 1011.9
20260509194016 63 90 5.0 6.0 0.00 0.00 0.00 69 1011.8
20260509193036 64 68 4.0 5.0 0.00 0.00 0.00 67 1011.8
20260509192036 65 68 4.0 5.0 0.00 0.00 0.00 66 1011.7
20260509191016 65 68 4.0 5.0 0.00 0.00 0.00 65 1011.6
20260509190016 66 68 4.0 5.0 0.00 0.00 0.00 64 1011.7
20260509185016 67 68 4.0 5.0 0.00 0.00 0.00 63 1011.5
20260509184016 67 68 5.0 6.0 0.00 0.00 0.00 63 1011.4
20260509183016 68 90 5.0 8.0 0.00 0.00 0.00 62 1011.4
20260509182016 68 90 5.0 9.0 0.00 0.00 0.00 60 1011.4
20260509181116 69 90 3.0 6.0 0.00 0.00 0.00 59 1011.3
20260509180056 70 90 3.0 6.0 0.00 0.00 0.00 58 1011.2
20260509175016 70 90 6.0 10.0 0.00 0.00 0.00 56 1011.2
20260509174016 71 90 6.0 10.0 0.00 0.00 0.00 54 1011.2
20260509173036 72 113 6.0 11.0 0.00 0.00 0.00 54 1011.4
20260509172016 72 68 5.0 10.0 0.00 0.00 0.00 56 1011.5
20260509171016 71 68 9.0 13.0 0.00 0.00 0.00 55 1011.5
20260509170016 72 68 8.0 11.0 0.00 0.00 0.00 55 1011.5
20260509165016 71 68 6.0 9.0 0.00 0.00 0.00 56 1011.6
20260509164016 70 68 5.0 10.0 0.00 0.00 0.00 57 1011.6
20260509163036 71 68 5.0 8.0 0.00 0.00 0.00 56 1011.7
20260509162016 73 113 6.0 9.0 0.00 0.00 0.00 52 1011.7
20260509161016 73 113 8.0 14.0 0.00 0.00 0.00 52 1011.8
20260509160016 73 68 3.0 5.0 0.00 0.00 0.00 53 1011.9
20260509155016 72 23 3.0 5.0 0.00 0.00 0.00 59 1011.9
20260509154016 72 90 4.0 8.0 0.00 0.00 0.00 58 1012.0
20260509153036 72 90 4.0 8.0 0.00 0.00 0.00 55 1012.1
20260509152016 73 113 4.0 6.0 0.00 0.00 0.00 54 1012.3
20260509151016 73 113 5.0 8.0 0.00 0.00 0.00 54 1012.4
20260509150015 72 113 6.0 11.0 0.00 0.00 0.00 55 1012.6
20260509145015 72 113 8.0 11.0 0.00 0.00 0.00 55 1012.6
20260509144016 73 113 7.0 12.0 0.00 0.00 0.00 54 1012.6
20260509143016 72 113 9.0 14.0 0.00 0.00 0.00 55 1012.6
20260509142015 71 90 4.0 9.0 0.00 0.00 0.00 59 1012.5
20260509141016 71 135 4.0 9.0 0.00 0.00 0.00 57 1012.6
20260509140016 72 113 5.0 10.0 0.00 0.00 0.00 57 1012.6
20260509135017 72 113 8.0 14.0 0.00 0.00 0.00 56 1012.5
20260509134015 71 113 8.0 15.0 0.00 0.00 0.00 56 1012.5
20260509133016 72 90 6.0 13.0 0.00 0.00 0.00 56 1012.6
20260509132016 74 135 7.0 15.0 0.00 0.00 0.00 52 1012.7
20260509131015 73 90 7.0 11.0 0.00 0.00 0.00 56 1012.8
20260509130015 73 113 9.0 14.0 0.00 0.00 0.00 55 1012.9
20260509125036 72 158 6.0 12.0 0.00 0.00 0.00 53 1012.9
20260509124015 72 113 8.0 14.0 0.00 0.00 0.00 56 1012.9
20260509123015 70 68 5.0 10.0 0.00 0.00 0.00 61 1012.9
20260509122035 71 68 7.0 12.0 0.00 0.00 0.00 61 1013.1
20260509121056 70 68 5.0 9.0 0.00 0.00 0.00 60 1013.3
20260509120036 70 90 10.0 15.0 0.00 0.00 0.00 61 1013.5
20260509115015 71 68 6.0 11.0 0.00 0.00 0.00 58 1013.5
20260509114016 71 135 6.0 10.0 0.00 0.00 0.00 58 1013.5
20260509113015 71 135 6.0 12.0 0.00 0.00 0.00 57 1013.6
20260509112015 71 135 6.0 10.0 0.00 0.00 0.00 57 1013.7
20260509111015 71 158 3.0 6.0 0.00 0.00 0.00 62 1013.8
20260509110016 70 68 5.0 13.0 0.00 0.00 0.00 65 1013.9
20260509105015 69 113 2.0 7.0 0.00 0.00 0.00 63 1013.9
20260509104015 69 90 6.0 12.0 0.00 0.00 0.00 65 1014.0
20260509103035 68 45 5.0 8.0 0.00 0.00 0.00 64 1014.1
20260509102015 68 68 4.0 9.0 0.00 0.00 0.00 65 1014.1
20260509101015 68 68 6.0 11.0 0.00 0.00 0.00 65 1014.3
20260509100017 67 90 4.0 9.0 0.00 0.00 0.00 64 1014.2
20260509095037 67 23 6.0 9.0 0.00 0.00 0.00 67 1014.3
20260509094017 67 113 3.0 7.0 0.00 0.00 0.00 64 1014.4
20260509093017 66 45 5.0 9.0 0.00 0.00 0.00 67 1014.4
20260509092017 66 68 7.0 11.0 0.00 0.00 0.00 65 1014.4
20260509091017 65 68 3.0 9.0 0.00 0.00 0.00 67 1014.4
20260509090017 65 45 3.0 6.0 0.00 0.00 0.00 66 1014.4
20260509085017 64 45 3.0 6.0 0.00 0.00 0.00 68 1014.4
20260509084017 63 68 3.0 6.0 0.00 0.00 0.00 69 1014.4
20260509083017 63 68 4.0 6.0 0.00 0.00 0.00 71 1014.5
20260509082057 62 135 2.0 4.0 0.00 0.00 0.00 69 1014.6
20260509081017 62 113 4.0 9.0 0.00 0.00 0.00 71 1014.7
20260509080017 61 90 3.0 5.0 0.00 0.00 0.00 72 1014.7
20260509075017 61 135 3.0 7.0 0.00 0.00 0.00 72 1014.9
20260509074037 60 113 3.0 6.0 0.00 0.00 0.00 72 1014.9
20260509073017 60 113 4.0 9.0 0.00 0.00 0.00 75 1015.0
20260509072018 59 113 4.0 8.0 0.00 0.00 0.00 78 1015.0
20260509071017 58 90 3.0 7.0 0.00 0.00 0.00 79 1014.9
20260509070021 57 113 4.0 10.0 0.00 0.00 0.00 80 1014.8
20260509065057 56 45 7.0 11.0 0.00 0.00 0.00 80 1014.6
20260509064057 55 45 6.0 12.0 0.00 0.00 0.00 82 1014.6
20260509063017 54 45 8.0 11.0 0.00 0.00 0.00 83 1014.7
20260509062017 54 68 7.0 10.0 0.00 0.00 0.00 84 1014.8
20260509061017 53 68 5.0 8.0 0.00 0.00 0.00 84 1014.8
20260509060017 52 68 5.0 9.0 0.00 0.00 0.00 86 1014.8
20260509055017 51 45 5.0 8.0 0.00 0.00 0.00 86 1014.6
20260509054017 51 45 6.0 10.0 0.00 0.00 0.00 87 1014.6
20260509053017 51 45 6.0 11.0 0.00 0.00 0.00 87 1014.6
20260509052017 51 45 6.0 10.0 0.00 0.00 0.00 87 1014.5
20260509051017 50 45 6.0 9.0 0.00 0.00 0.00 87 1014.5
20260509050017 49 45 6.0 9.0 0.00 0.00 0.00 89 1014.5
20260509045057 49 45 5.0 9.0 0.00 0.00 0.00 88 1014.5
20260509044017 49 45 6.0 9.0 0.00 0.00 0.00 88 1014.4
20260509043017 49 45 5.0 7.0 0.00 0.00 0.00 88 1014.5
20260509042017 49 45 5.0 8.0 0.00 0.00 0.00 88 1014.4
20260509041057 49 45 5.0 8.0 0.00 0.00 0.00 89 1014.5
20260509040017 49 45 4.0 8.0 0.00 0.00 0.00 88 1014.6
20260509035017 49 45 5.0 8.0 0.00 0.00 0.00 87 1014.5
20260509034037 49 45 4.0 7.0 0.00 0.00 0.00 87 1014.6
20260509033017 50 45 5.0 8.0 0.00 0.00 0.00 86 1014.6